Change the Weather History Date:

Thursday, September 5, 2013

  Actual Average Record
Temperature  
Mean Temperature 69 °F 59 °F  
Max Temperature 85 °F 73 °F 85 °F (2013)
Min Temperature 53 °F 45 °F 36 °F (1999)
Degree Days  
Heating Degree Days 0 6  
Month to date heating degree days 0 28  
Since 1 July heating degree days 14 131  
Cooling Degree Days 4 0  
Month to date cooling degree days 19 0  
Year to date cooling degree days 341 157  
Growing Degree Days 18 (Base 50)    
Moisture  
Dew Point 49 °F    
Average Humidity 55    
Maximum Humidity 86    
Minimum Humidity 23    
Precipitation  
Precipitation 0.03 in 0.04 in 0.08 in (2003)
Month to date precipitation 0.17 0.23  
Year to date precipitation 2.75 8.26  
Sea Level Pressure  
Sea Level Pressure 30.11 in    
Wind  
Wind Speed 8 mph (South)    
Max Wind Speed 18 mph    
Max Gust Speed 25 mph    
Visibility 10 miles    
Events Rain , Thunderstorm    
T = Trace of Precipitation, MM = Missing Value Source: NWS Daily Summary

Daily Weather History Graph

Daily Weather History Graph

Search for Another Location

Airport or City:

Trip Planner

Search our weather history database for the weather conditions in past years. The results will help you decide how hot, cold, wet, or windy it might be!

Date:

Astronomy

Sep. 05, 2013 Rise Set
Actual Time 6:54 AM MDT 7:49 PM MDT
Civil Twilight 6:26 AM MDT 8:17 PM MDT
Nautical Twilight 5:53 AM MDT 8:51 PM MDT
Astronomical Twilight 5:18 AM MDT 9:25 PM MDT
Moon 7:10 AM MDT (9/5) 7:42 PM MDT (9/5)
Length of Visible Light 13h 51m
Length of Day
12h 54m
New Moon, 0% of the Moon is Illuminated
Sep 5
New Moon
Sep 12
First Quarter
Sep 19
Full
Sep 26
Last Quarter
Oct 4
New

Hourly Weather History & Observations

Time (MDT) Temp. Dew Point Humidity Pressure Visibility Wind Dir Wind Speed Gust Speed Precip Events Conditions
12:53 AM 59.0 °F 48.9 °F 69% 30.08 in 10.0 mi Calm Calm - N/A   Partly Cloudy
1:53 AM 57.9 °F 48.0 °F 70% 30.07 in 10.0 mi ESE 4.6 mph - N/A   Clear
2:53 AM 55.0 °F 48.9 °F 80% 30.08 in 10.0 mi SSW 11.5 mph - 0.00 in Rain Light Rain
3:12 AM 55.4 °F 50.0 °F 82% 30.39 in 10.0 mi South 8.1 mph - 0.00 in Rain , Thunderstorm Light Rain
3:46 AM 57.2 °F 51.8 °F 82% 30.39 in 10.0 mi East 9.2 mph - 0.00 in   Overcast
3:53 AM 57.0 °F 52.0 °F 83% 30.09 in 10.0 mi East 12.7 mph - 0.00 in Rain Light Rain
4:53 AM 55.9 °F 51.1 °F 84% 30.10 in 10.0 mi SSE 13.8 mph 21.9 mph 0.00 in   Mostly Cloudy
5:53 AM 57.9 °F 48.0 °F 70% 30.09 in 10.0 mi SE 12.7 mph - N/A   Partly Cloudy
6:53 AM 57.9 °F 48.9 °F 72% 30.11 in 10.0 mi SSE 8.1 mph - N/A   Clear
7:53 AM 59.0 °F 48.9 °F 69% 30.11 in 10.0 mi Calm Calm - N/A   Clear
8:53 AM 61.0 °F 50.0 °F 67% 30.13 in 10.0 mi SSW 5.8 mph - N/A   Scattered Clouds
9:53 AM 64.9 °F 50.0 °F 58% 30.11 in 10.0 mi Variable 3.5 mph - N/A   Clear
10:53 AM 69.1 °F 48.9 °F 49% 30.09 in 10.0 mi WSW 5.8 mph - N/A   Clear
11:53 AM 75.9 °F 46.9 °F 36% 30.06 in 10.0 mi SW 8.1 mph 16.1 mph N/A   Clear
12:53 PM 80.1 °F 46.0 °F 30% 30.04 in 10.0 mi SW 9.2 mph 21.9 mph N/A   Clear
1:53 PM 79.0 °F 45.0 °F 30% 30.04 in 10.0 mi SW 9.2 mph - N/A   Mostly Cloudy
2:53 PM 82.0 °F 43.0 °F 25% 30.01 in 10.0 mi SSW 15.0 mph 26.5 mph N/A   Scattered Clouds
3:41 PM 77.0 °F 46.4 °F 34% 30.30 in 10.0 mi SSE 12.7 mph 21.9 mph 0.00 in Rain , Thunderstorm Light Rain
3:53 PM 78.1 °F 46.9 °F 33% 30.01 in 10.0 mi South 13.8 mph - 0.00 in Thunderstorm Mostly Cloudy
4:53 PM 71.1 °F - N/A% 30.04 in 10.0 mi SSW 5.8 mph - 0.03 in Thunderstorm Scattered Clouds
5:02 PM 69.8 °F - N/A% 30.31 in 10.0 mi SW 4.6 mph - N/A Thunderstorm Clear
5:23 PM 75.2 °F - N/A% 30.31 in 10.0 mi SSW 8.1 mph - N/A   Scattered Clouds
5:53 PM 75.9 °F 66.0 °F 71% 30.02 in 10.0 mi South 20.7 mph 27.6 mph N/A   Mostly Cloudy
6:53 PM 73.9 °F 48.9 °F 41% 30.01 in 10.0 mi SSW 13.8 mph - N/A   Partly Cloudy
7:53 PM 69.1 °F 51.1 °F 53% 30.02 in 10.0 mi SSW 5.8 mph - N/A   Scattered Clouds
8:53 PM 69.1 °F 48.9 °F 49% 30.03 in 10.0 mi South 4.6 mph - N/A   Partly Cloudy
9:53 PM 68.0 °F 50.0 °F 52% 30.03 in 10.0 mi South 5.8 mph - N/A   Overcast
10:53 PM 66.9 °F 50.0 °F 54% 30.03 in 10.0 mi SSE 6.9 mph - N/A   Mostly Cloudy
11:53 PM 66.9 °F 48.9 °F 52% 30.00 in 10.0 mi South 5.8 mph - N/A   Scattered Clouds